Regional Weather Roundup
Issued by NWS

Home | Current Version | Previous Version | Graphics & Text | Print | Product List | Glossary On
Versions: 1 2 3 4 5 6 7 8 9 10 11 12 13 14 15 16 17 18 19 20 21 22 23 24 25 26 27 28 29 30 31 32 33 34 35 36 37 38 39 40 41 42 43 44 45 46 47 48 49 50
000
ASUS43 KIND 190459
RWRIN

WEATHER ROUNDUP FOR INDIANA
NATIONAL WEATHER SERVICE INDIANAPOLIS IN
1200 AM EST MON FEB 19 2018

NOTE: "FAIR" INDICATES FEW OR NO CLOUDS BELOW 12,000 FEET WITH NO
SIGNIFICANT WEATHER AND/OR OBSTRUCTIONS TO VISIBILITY.

* - STATION DOES NOT REPORT WEATHER SUCH AS PRECIPITATION OR FOG.

+ - STATION NOT QUALITY CONTROLLED BY THE NATIONAL WEATHER SERVICE.
    USE DATA WITH CAUTION...ESPECIALLY DEWPOINT AND RELATIVE
    HUMIDITY OBSERVATIONS.

INZ001>003-010>013-019-020-190600-
NORTHWEST INDIANA

CITY           SKY/WX    TMP DP  RH WIND       PRES   REMARKS
MICHIGAN CITY+ FAIR      37  32  81 S10G18    29.94F WCI  30
MONTICELLO +   CLOUDY    40  32  72 S8        29.97F WCI  35

$$

LMZ046-743>745-190600-
SOUTHERN LAKE MICHIGAN

STATION/POSITION TIME  TEMP    WIND        PRES    WAVE
                       AIR SEA DIR/SP/G            HT
                 (UTC) (F)     (DEG/KT/KT) (MB)    (FT)
BURNS HARBOR     0440   40     170/ 18/ 26 1013.5F
MICHIGAN CITY    0430   39     150/ 20/ 25   N/A

$$

INZ004-005-014>016-021>024-190600-
NORTH CENTRAL INDIANA

CITY           SKY/WX    TMP DP  RH WIND       PRES   REMARKS
GOSHEN         FAIR      37  30  75 SE13      29.98F WCI  29
PERU/GRISSOM   CLOUDY    40  39  95 S15       29.98F WCI  32
SOUTH BEND     FAIR      37  29  72 S16       29.97F WCI  28
WARSAW +       FAIR      36  32  87 SE5       30.00F WCI  32

$$

INZ006>009-017-018-025>027-190600-
NORTHEAST INDIANA

CITY           SKY/WX    TMP DP  RH WIND       PRES   REMARKS
AUBURN +       FAIR      34  32  93 SE3       30.04F
FORT WAYNE     MOCLDY    36  31  82 SE8       30.03F WCI  30
KENDALLVILLE + FAIR      34  31  88 S13       30.03F WCI  25

$$

INZ028-029-035-036-043>045-051>053-190600-
WEST CENTRAL INDIANA

CITY           SKY/WX    TMP DP  RH WIND       PRES   REMARKS
GREENCASTLE +  CLOUDY    43  32  65 S8        30.01F
LAFAYETTE      CLOUDY    43  33  68 S13G20    29.96F
TERRE HAUTE    MOCLDY    45  34  65 S13       29.99F

$$

INZ030>032-037>040-046>048-054>057-064-065-190600-
CENTRAL INDIANA

CITY           SKY/WX    TMP DP  RH WIND       PRES   REMARKS
FRANKFORT +    CLOUDY    43  36  74 S9        30.00F
GREENWOOD *+   CLOUDY   N/A N/A N/A S12       30.06R
INDIANAPOLIS   MOCLDY    43  33  68 SE13      30.03S
-EAGLE CREEK   MOCLDY    44  32  62 SE9       30.02F
KOKOMO +       CLOUDY    40  34  79 S17       30.00F WCI  31
MARION +       MOCLDY    38  32  80 S12       30.03S WCI  30
MT COMFORT *+  CLOUDY    41  36  81 S12       30.04S
SHELBYVILLE    CLOUDY    44  33  65 S8        30.06S
ZIONSVILLE +   CLOUDY    41  33  74 S14       30.02F

$$

INZ033-034-041-042-049-050-058-059-190600-
EAST CENTRAL INDIANA

CITY           SKY/WX    TMP DP  RH WIND       PRES   REMARKS
MUNCIE         FAIR      43  32  65 S13G23    30.02F
RICHMOND +     FAIR      36  32  87 SE14      30.07F WCI  27

$$

INZ060-061-067>069-081>083-085>088-190600-
SOUTHWEST INDIANA

CITY           SKY/WX    TMP DP  RH WIND       PRES   REMARKS
EVANSVILLE     CLOUDY    49  37  63 SE7       30.03F
HUNTINGBURG +  CLOUDY    50  36  58 SE9       30.05F

$$

INZ062-063-066-070>080-084-089>092-190600-
SOUTH CENTRAL AND SOUTHEAST INDIANA

CITY           SKY/WX    TMP DP  RH WIND       PRES   REMARKS
BLOOMINGTON    CLOUDY    44  33  65 S9        30.02F
FRENCH LICK *+ CLOUDY    46  30  53 SE9       30.05F
SEYMOUR +      MOCLDY    46  34  61 SE5       30.07F

$$





USA.gov is the U.S. government's official web portal to all federal, state and local government web resources and services.